"Pseudo-MPEC" for P10OrYz

Created 2019 Jun 15 0:09:30 UT using Find_Orb

Click here for an explanation of pseudo-MPECs

 
 Astrometry: 
     P10OrYz  C2019 01 22Mc]fKf$Tw\XCAe_ie.-B:s]?cC%6,bV1(5fYqx#mcb\Nh(-$5)b@F51
     P10OrYz  C2019 01 227KcIYrZaaAYxxL;`bC(XKi\:rT8k(U.D$A9($9#78U=SoYQx7As=F51
     P10OrYz  C2019 05 07nMs,!E@G3*tMae?q(LfaAstrometry#RZ`KQTRJ:JVQ%QRAd6okRF51
     P10OrYz  C2019 05 08ZdIb7i#n.UNHZ%V2*p]0'h5Xt1vehqaRt#Cc[lK6tsqTO]^@H'b7F51
     P10OrYz  C2019 05 09_7H[O#Mj0GG-0(y\?t/jN9Mf9H4@dKY!NnWWr*!\QHiQCRJq;nETF51
     P10OrYz  C2019 05 15uemwSgbXF=,;O=g3#?gl[rigv`redacted;(D+]?J*q#r36rPvgYF51
     P10OrYz  C2019 05 17:.mX12yXGKG4!.pEmS?86u0I1(S.pgXZZjF4HG9o5;#+:q9YiQodF51
     P10OrYz  C2019 05 19;rPC8mm:LMNpMtV3/Kkne-E+^nISgywm7D:+JgZ@nv8B,+WqyC3aF51
     P10OrYz  C2019 05 19hy6gSWA*$2NS_RMS(fO5lZlcZiPA1HtHiM%0W^C,;9bmfouREdx%F51
     P10OrYz  C2019 05 191;9k429/4)\mm:QjT+mpRYe(f0ldj#]XKrj?'$=qoW#:1Wy$'R8lF51
     P10OrYz  C2019 05 19Z$WB!^H^NV`m7oUiflXR#X0*dHwxL.Xo/qm2y$rloj;JZ4kLFw*XF51
     P10OrYz KC2019 05 22-4BVet\sS+\o#*\clickVb.#Wyr\Y,'_S$ie1X.AC($q5/-_f7ACF51
     P10OrYz  C2019 06 01yOF1Nma%t!2xjwc++Fh/q#$_p](ogNZhereoFMWK!X]S[=%@%bevF51
     P10OrYz  C2019 06 01@]T\BJtJtaRTVS\3$]Ekwb'qd`4)6Tfjj/od3CKfw\s3owforKo9F51
     P10OrYz  C2019 06 01qjXRexplanationvlP%(^kLNTu9h.p')JXTsLJj(v2$hb]JOPO)BF51
     P10OrYz ^C2019 06 07.35337811 08 50.810+32 32 52.72   ~67Kq 22.44GVNEOCP568
     P10OrYz ^C2019 06 07.35432611 08 50.849+32 32 52.02   ~67Kq 22.17GVNEOCP568
     P10OrYz ^C2019 06 07.35527311 08 50.877+32 32 51.32   ~67Kq 22.26GVNEOCP568

Station data:
(568) Mauna Kea  (N19.826116 W155.472200)  US/Hawaii.
(F51) Pan-STARRS 1, Haleakala  (N20.707235 W156.255910)  US/Hawaii.
   Observers N. Primak, A. Schultz, S. Watters, J. Thiel, T. Goggia. Measurer
   PS1 Science Consortium. 1.8-m Ritchey-Chrétien + CCD.

Orbital elements:  P10OrYz
   Perihelion 2017 May 5.582746 +/- 0.168 TT = 13:59:09 (JD 2457879.082746)
Epoch 2019 Jun  7.0 TT = JDT 2458641.5                        AutoNEOCP
M 138.94671901 +/- 0.030            (J2000 ecliptic)
n   0.18224498 +/- 4.09e-6          Peri.  329.10283 +/- 0.019
a   3.08105177 +/- 4.61e-5          Node    53.88935 +/- 0.0015
e   0.1303313 +/- 5.87e-5           Incl.   28.28287 +/- 0.00032
P   5.41                   H 16.6   G  0.15   U  4.6  
q 2.67949421 +/- 0.000194    Q 3.48260932 +/- 0.000177
From 18 observations 2019 Jan. 22-June 7; mean residual 0".19
Residuals in arcseconds: 
190122 F51  .04-  .11-    190517 F51  .09-  .11+    190601 F51  .05+  .09-    
190122 F51  .04+  .12+    190519 F51  .12+  .40-    190601 F51  .15-  .20-    
190507 F51  .09+  .02+    190519 F51  .38-  .13-    190601 F51  .11-  .07+    
190508 F51  .28+  .16-    190519 F51  .40-  .22+    190607 568  .05+  .07+    
190509 F51  .24-  .08+    190519 F51  .35-  .27+    190607 568  .14+  .07+    
190515 F51  .31+  .06+    190522 F51  .26+  .10-    190607 568  .09+  .07+    

Ephemerides (geocentric):
Date (UTC) HH   RA              Dec         delta   r     elong  mag " sig PA
---- -- -- --  -------------   -----------  ------ ------ -----  --- ---- ---
2019 06 15 00  11 13 36.904   +30 59 43.85  3.5328 3.4088  74.7 22.9 .065 152
2019 06 15 01  11 13 38.578   +30 59 13.33  3.5334 3.4089  74.7 22.9 .065 152
2019 06 15 02  11 13 40.254   +30 58 42.81  3.5339 3.4089  74.7 22.9 .066 152
2019 06 15 03  11 13 41.930   +30 58 12.29  3.5345 3.4089  74.6 22.9 .066 152
2019 06 15 04  11 13 43.608   +30 57 41.77  3.5350 3.4089  74.6 22.9 .066 152
2019 06 15 05  11 13 45.287   +30 57 11.25  3.5355 3.4090  74.6 22.9 .066 152
2019 06 15 06  11 13 46.967   +30 56 40.73  3.5361 3.4090  74.5 22.9 .066 152
2019 06 15 07  11 13 48.648   +30 56 10.21  3.5366 3.4090  74.5 22.9 .066 152
2019 06 15 08  11 13 50.331   +30 55 39.69  3.5372 3.4091  74.5 22.9 .067 152
2019 06 15 09  11 13 52.015   +30 55 09.17  3.5377 3.4091  74.5 22.9 .067 152
2019 06 15 10  11 13 53.700   +30 54 38.64  3.5383 3.4091  74.4 22.9 .067 152
2019 06 15 11  11 13 55.386   +30 54 08.12  3.5388 3.4091  74.4 22.9 .067 152
2019 06 15 12  11 13 57.073   +30 53 37.60  3.5393 3.4092  74.4 22.9 .067 152
2019 06 15 13  11 13 58.761   +30 53 07.07  3.5399 3.4092  74.3 22.9 .068 152
2019 06 15 14  11 14 00.451   +30 52 36.55  3.5404 3.4092  74.3 22.9 .068 152
2019 06 15 15  11 14 02.142   +30 52 06.02  3.5410 3.4093  74.3 22.9 .068 152
2019 06 15 16  11 14 03.834   +30 51 35.50  3.5415 3.4093  74.3 22.9 .068 152
2019 06 15 17  11 14 05.527   +30 51 04.97  3.5421 3.4093  74.2 22.9 .068 151
2019 06 15 18  11 14 07.221   +30 50 34.45  3.5426 3.4093  74.2 22.9 .069 151
2019 06 15 19  11 14 08.917   +30 50 03.92  3.5431 3.4094  74.2 22.9 .069 151
2019 06 15 20  11 14 10.614   +30 49 33.39  3.5437 3.4094  74.2 22.9 .069 151
2019 06 15 21  11 14 12.311   +30 49 02.87  3.5442 3.4094  74.1 22.9 .069 151
2019 06 15 22  11 14 14.010   +30 48 32.34  3.5448 3.4094  74.1 22.9 .069 151
2019 06 15 23  11 14 15.711   +30 48 01.81  3.5453 3.4095  74.1 22.9 .069 151
2019 06 16 00  11 14 17.412   +30 47 31.28  3.5459 3.4095  74.0 22.9 .070 151
2019 06 16 01  11 14 19.115   +30 47 00.76  3.5464 3.4095  74.0 22.9 .070 151
2019 06 16 02  11 14 20.818   +30 46 30.23  3.5469 3.4096  74.0 22.9 .070 151
2019 06 16 03  11 14 22.523   +30 45 59.70  3.5475 3.4096  74.0 22.9 .070 151
2019 06 16 04  11 14 24.229   +30 45 29.17  3.5480 3.4096  73.9 22.9 .070 151
2019 06 16 05  11 14 25.936   +30 44 58.64  3.5486 3.4096  73.9 22.9 .071 151
2019 06 16 06  11 14 27.645   +30 44 28.11  3.5491 3.4097  73.9 22.9 .071 151
2019 06 16 07  11 14 29.354   +30 43 57.58  3.5496 3.4097  73.9 22.9 .071 151
2019 06 16 08  11 14 31.065   +30 43 27.05  3.5502 3.4097  73.8 22.9 .071 151
2019 06 16 09  11 14 32.777   +30 42 56.52  3.5507 3.4098  73.8 22.9 .071 151
2019 06 16 10  11 14 34.490   +30 42 25.98  3.5513 3.4098  73.8 22.9 .072 151
2019 06 16 11  11 14 36.204   +30 41 55.45  3.5518 3.4098  73.7 22.9 .072 151
2019 06 16 12  11 14 37.919   +30 41 24.92  3.5523 3.4098  73.7 22.9 .072 151
2019 06 16 13  11 14 39.636   +30 40 54.39  3.5529 3.4099  73.7 22.9 .072 151
2019 06 16 14  11 14 41.353   +30 40 23.85  3.5534 3.4099  73.7 22.9 .072 151
2019 06 16 15  11 14 43.072   +30 39 53.32  3.5540 3.4099  73.6 22.9 .073 151
2019 06 16 16  11 14 44.792   +30 39 22.79  3.5545 3.4099  73.6 22.9 .073 151
2019 06 16 17  11 14 46.513   +30 38 52.25  3.5551 3.4100  73.6 22.9 .073 151
2019 06 16 18  11 14 48.236   +30 38 21.72  3.5556 3.4100  73.5 22.9 .073 151
2019 06 16 19  11 14 49.959   +30 37 51.18  3.5561 3.4100  73.5 22.9 .073 151
2019 06 16 20  11 14 51.684   +30 37 20.65  3.5567 3.4101  73.5 22.9 .073 151
2019 06 16 21  11 14 53.409   +30 36 50.11  3.5572 3.4101  73.5 22.9 .074 151
2019 06 16 22  11 14 55.136   +30 36 19.58  3.5578 3.4101  73.4 22.9 .074 151
2019 06 16 23  11 14 56.864   +30 35 49.04  3.5583 3.4101  73.4 22.9 .074 151